Preview of NWS' New Version of Forecast
This preview is not operational and should not be used for support decisions.

Regional Weather Roundup (RWR)

Issued by National Weather Service (NWS)

                            
000
ASUS45 KBOI 221210
RWRID 

IDAHO REGIONAL WEATHER ROUNDUP
NATIONAL WEATHER SERVICE BOISE ID
600 AM MDT SUN SEP 22 2019

NOTE: "FAIR" INDICATES FEW OR NO CLOUDS BELOW 12000 FEET
WITH NO SIGNIFICANT WEATHER AND/OR OBSTRUCTIONS TO VISIBILITY

IDZ012-014-221300-
SOUTHWEST IDAHO

  
CITY           SKY/WX    TMP DP  RH WIND       PRES   REMARKS
BOISE          CLEAR     51  40  65 SE12      30.04R                  
CALDWELL       CLEAR     45  41  86 CALM      30.04R                  
MOUNTAIN HOME  CLEAR     43  43  99 E7        30.06R                  
$$

IDZ016-017-221300-
SOUTHCENTRAL IDAHO

  
CITY           SKY/WX    TMP DP  RH WIND       PRES   REMARKS
BURLEY         CLEAR     47  35  63 S9        30.10S                  
JEROME         CLEAR     45  35  68 SE7       30.11R                  
TWIN FALLS     CLEAR     43  35  73 S8        30.10S                  
$$

IDZ019>023-221300-
SOUTHEAST IDAHO

  
CITY           SKY/WX    TMP DP  RH WIND       PRES   REMARKS
IDAHO FALLS    CLEAR     41  35  79 S5        30.14R                  
POCATELLO      CLEAR     37  34  89 NE8       30.15R WCI  31          
REXBURG        PTCLDY    45  37  73 SW9       30.13R                  
$$

IDZ006-010-011-018-031-032-221300-
CENTRAL IDAHO MOUNTAINS

  
CITY           SKY/WX    TMP DP  RH WIND       PRES   REMARKS
MCCALL         CLEAR     36  32  85 CALM      30.08F                  
HAILEY         CLEAR     37  34  87 NW8       30.16R WCI  31          
STANLEY          N/A     30  27  88 CALM      30.18S                  
SALMON         CLOUDY    46  43  89 SE5       30.10R                  
CHALLIS        PTCLDY    43  35  73 CALM      30.13R                  
$$

IDZ002-004-006-007-026-221300-
NORTHERN IDAHO

  
CITY           SKY/WX    TMP DP  RH WIND       PRES   REMARKS
LEWISTON       CLEAR     53  47  79 SE7       29.95S                  
LOWELL           N/A     49  48  97 CALM      30.05S                  
COEUR D'ALENE  CLEAR     41  39  93 NE6       29.97F                  
MULLAN PASS    CLEAR     42  38  85 S7        30.05F                  
$$